"read_dt","SO2 (ppb)","flags","PMT voltage (V)","lamp voltage (V)","lamp intensity (Hz)","internal temp (C)","react chamber temp (C)","sample flow (l/min)","pres (mmHg)","SO2 bkg (ppb)","SO2 coefficient"
2016-07-26 00:00:00,2183E-3,5C000400,-0724,0825,12109,030.1,045.5,0.251,752.3,01.17,0.508
2016-07-26 00:01:00,2094E-3,5C000400,-0724,0825,12121,030.2,045.5,0.251,752.4,01.17,0.508
2016-07-26 00:02:00,2157E-3,5C000400,-0724,0825,12203,030.1,045.5,0.251,752.3,01.17,0.508
2016-07-26 00:03:00,2276E-3,5C000400,-0724,0825,12362,030.1,045.5,0.251,752.3,01.17,0.508
2016-07-26 00:04:00,2223E-3,5C000400,-0724,0825,12323,030.1,045.5,0.251,752.4,01.17,0.508
2016-07-26 00:05:00,2191E-3,5C000400,-0724,0825,12320,030.1,045.5,0.251,752.4,01.17,0.508
2016-07-26 00:06:00,2343E-3,5C000400,-0724,0824,12197,030.1,045.5,0.251,752.4,01.17,0.508
2016-07-26 00:07:00,2172E-3,5C000400,-0724,0824,12209,030.1,045.5,0.251,752.4,01.17,0.508
2016-07-26 00:08:00,2248E-3,5C000400,-0724,0825,11976,030.1,045.5,0.251,752.4,01.17,0.508
2016-07-26 00:09:00,2322E-3,5C000400,-0724,0825,12328,030.2,045.5,0.251,752.4,01.17,0.508
2016-07-26 00:10:00,2268E-3,5C000400,-0724,0825,12137,030.1,045.5,0.251,752.4,01.17,0.508
2016-07-26 00:11:00,2106E-3,5C000400,-0724,0825,12199,030.2,045.5,0.251,752.4,01.17,0.508
2016-07-26 00:12:00,2212E-3,5C000400,-0724,0825,12025,030.1,045.5,0.251,752.4,01.17,0.508
2016-07-26 00:13:00,2120E-3,5C000400,-0724,0824,12176,030.2,045.5,0.251,752.4,01.17,0.508
2016-07-26 00:14:00,2187E-3,5C000400,-0724,0825,12248,030.2,045.5,0.251,752.4,01.17,0.508
2016-07-26 00:15:00,2172E-3,5C000400,-0724,0823,12216,030.2,045.5,0.250,752.4,01.17,0.508
2016-07-26 00:16:00,2236E-3,5C000400,-0724,0825,12255,030.2,045.5,0.251,752.4,01.17,0.508
2016-07-26 00:17:00,2207E-3,5C000400,-0724,0825,12272,030.1,045.5,0.251,752.4,01.17,0.508
2016-07-26 00:18:00,2139E-3,5C000400,-0724,0824,12154,030.2,045.5,0.251,752.4,01.17,0.508
2016-07-26 00:19:00,2225E-3,5C000400,-0724,0824,12224,030.2,045.5,0.251,752.4,01.17,0.508
2016-07-26 00:20:00,2172E-3,5C000400,-0724,0825,12260,030.2,045.5,0.251,752.4,01.17,0.508
2016-07-26 00:21:00,2151E-3,5C000400,-0724,0825,12158,030.2,045.5,0.251,752.3,01.17,0.508
2016-07-26 00:22:00,2212E-3,5C000400,-0724,0824,12237,030.2,045.5,0.251,752.3,01.17,0.508
2016-07-26 00:23:00,2184E-3,5C000400,-0724,0824,12285,030.1,045.5,0.251,752.3,01.17,0.508
2016-07-26 00:24:00,2173E-3,5C000400,-0724,0824,12135,030.2,045.5,0.251,752.3,01.17,0.508
2016-07-26 00:25:00,2260E-3,5C000400,-0724,0825,12252,030.1,045.5,0.251,752.4,01.17,0.508
2016-07-26 00:26:00,2197E-3,5C000400,-0724,0824,12272,030.2,045.5,0.251,752.3,01.17,0.508
2016-07-26 00:27:00,2322E-3,5C000400,-0724,0826,12504,030.2,045.5,0.250,752.3,01.17,0.508
2016-07-26 00:28:00,2193E-3,5C000400,-0724,0825,12201,030.2,045.5,0.251,752.3,01.17,0.508
2016-07-26 00:29:00,2235E-3,5C000400,-0724,0824,12367,030.2,045.5,0.251,752.3,01.17,0.508
2016-07-26 00:30:00,2218E-3,5C000400,-0724,0824,12302,030.2,045.5,0.251,752.3,01.17,0.508
2016-07-26 00:31:00,2200E-3,5C000400,-0724,0825,12202,030.2,045.6,0.251,752.3,01.17,0.508
2016-07-26 00:32:00,2181E-3,5C000400,-0724,0824,12291,030.2,045.5,0.251,752.2,01.17,0.508
2016-07-26 00:33:00,2167E-3,5C000400,-0724,0825,12305,030.2,045.5,0.251,752.3,01.17,0.508
2016-07-26 00:34:00,2167E-3,5C000400,-0724,0824,12379,030.2,045.5,0.250,752.3,01.17,0.508
2016-07-26 00:35:00,2224E-3,5C000400,-0724,0826,12334,030.2,045.5,0.251,752.3,01.17,0.508
2016-07-26 00:36:00,2306E-3,5C000400,-0724,0825,12254,030.2,045.5,0.251,752.3,01.17,0.508
2016-07-26 00:37:00,2250E-3,5C000400,-0724,0825,12265,030.2,045.5,0.251,752.3,01.17,0.508
2016-07-26 00:38:00,2333E-3,5C000400,-0724,0824,12335,030.2,045.5,0.251,752.3,01.17,0.508
2016-07-26 00:39:00,2261E-3,5C000400,-0724,0824,12410,030.2,045.5,0.251,752.3,01.17,0.508
2016-07-26 00:40:00,2072E-3,5C000400,-0724,0825,12298,030.2,045.5,0.251,752.3,01.17,0.508
2016-07-26 00:41:00,2194E-3,5C000400,-0724,0824,12299,030.2,045.5,0.251,752.3,01.17,0.508
2016-07-26 00:42:00,2247E-3,5C000400,-0724,0823,12244,030.2,045.5,0.251,752.3,01.17,0.508
2016-07-26 00:43:00,2299E-3,5C000400,-0724,0825,12220,030.2,045.5,0.251,752.2,01.17,0.508
2016-07-26 00:44:00,2371E-3,5C000400,-0724,0824,12253,030.2,045.5,0.251,752.2,01.17,0.508
2016-07-26 00:45:00,2172E-3,5C000400,-0724,0825,12213,030.2,045.5,0.251,752.2,01.17,0.508
2016-07-26 00:46:00,2266E-3,5C000400,-0724,0824,12128,030.2,045.5,0.250,752.2,01.17,0.508
2016-07-26 00:47:00,2282E-3,5C000400,-0724,0824,12210,030.2,045.5,0.251,752.2,01.17,0.508
2016-07-26 00:48:00,2266E-3,5C000400,-0724,0824,12076,030.2,045.5,0.251,752.2,01.17,0.508
2016-07-26 00:49:00,2292E-3,5C000400,-0724,0825,12195,030.2,045.5,0.251,752.2,01.17,0.508
2016-07-26 00:50:00,2242E-3,5C000400,-0724,0825,12152,030.2,045.6,0.251,752.2,01.17,0.508
2016-07-26 00:51:00,2196E-3,5C000400,-0724,0824,12471,030.2,045.5,0.250,752.2,01.17,0.508
2016-07-26 00:52:00,2213E-3,5C000400,-0724,0824,12330,030.3,045.5,0.251,752.3,01.17,0.508
2016-07-26 00:53:00,2235E-3,5C000400,-0724,0824,12130,030.2,045.5,0.251,752.3,01.17,0.508
2016-07-26 00:54:00,2282E-3,5C000400,-0724,0824,12360,030.2,045.5,0.251,752.3,01.17,0.508
2016-07-26 00:55:00,2271E-3,5C000400,-0724,0825,12219,030.2,045.5,0.251,752.3,01.17,0.508
2016-07-26 00:56:00,2149E-3,5C000400,-0724,0824,12260,030.2,045.5,0.250,752.3,01.17,0.508
2016-07-26 00:57:00,2181E-3,5C000400,-0724,0825,12248,030.2,045.5,0.251,752.3,01.17,0.508
2016-07-26 00:58:00,2176E-3,5C000400,-0724,0825,12346,030.3,045.5,0.251,752.3,01.17,0.508
2016-07-26 00:59:00,2206E-3,5C000400,-0724,0823,12123,030.2,045.5,0.251,752.3,01.17,0.508
2016-07-26 01:00:00,2256E-3,5C000400,-0724,0825,11123,030.2,045.5,0.251,752.2,01.17,0.508
2016-07-26 01:01:00,2249E-3,5C000400,-0724,0824,12161,030.2,045.5,0.250,752.2,01.17,0.508
2016-07-26 01:02:00,2211E-3,5C000400,-0724,0825,12287,030.2,045.5,0.251,752.3,01.17,0.508
2016-07-26 01:03:00,2253E-3,5C000400,-0724,0825,12322,030.2,045.5,0.251,752.3,01.17,0.508
2016-07-26 01:04:00,2245E-3,5C000400,-0724,0825,12284,030.2,045.5,0.251,752.3,01.17,0.508
2016-07-26 01:05:00,2079E-3,5C000400,-0724,0825,12319,030.3,045.5,0.251,752.2,01.17,0.508
2016-07-26 01:06:00,2221E-3,5C000400,-0724,0825,12220,030.2,045.5,0.250,752.2,01.17,0.508
2016-07-26 01:07:00,2199E-3,5C000400,-0724,0824,12317,030.3,045.5,0.251,752.2,01.17,0.508
2016-07-26 01:08:00,2277E-3,5C000400,-0724,0825,12282,030.2,045.5,0.251,752.2,01.17,0.508
2016-07-26 01:09:00,2361E-3,5C000400,-0724,0824,12149,030.2,045.5,0.251,752.2,01.17,0.508
2016-07-26 01:10:00,2244E-3,5C000400,-0724,0824,12109,030.2,045.5,0.251,752.2,01.17,0.508
2016-07-26 01:11:00,2106E-3,5C000400,-0724,0825,12122,030.2,045.5,0.250,752.2,01.17,0.508
2016-07-26 01:12:00,2202E-3,5C000400,-0724,0824,12162,030.2,045.5,0.251,752.2,01.17,0.508
2016-07-26 01:13:00,2289E-3,5C000400,-0724,0824,12238,030.2,045.5,0.251,752.3,01.17,0.508
2016-07-26 01:14:00,2198E-3,5C000400,-0724,0824,12200,030.2,045.5,0.251,752.3,01.17,0.508
2016-07-26 01:15:00,2082E-3,5C000400,-0724,0824,12028,030.3,045.5,0.251,752.3,01.17,0.508
2016-07-26 01:16:00,2175E-3,5C000400,-0724,0825,12291,030.2,045.5,0.250,752.3,01.17,0.508
2016-07-26 01:17:00,2264E-3,5C000400,-0724,0824,12237,030.3,045.5,0.251,752.3,01.17,0.508
2016-07-26 01:18:00,2285E-3,5C000400,-0724,0824,12300,030.3,045.5,0.251,752.2,01.17,0.508
2016-07-26 01:19:00,2349E-3,5C000400,-0724,0825,12178,030.3,045.5,0.251,752.2,01.17,0.508
2016-07-26 01:20:00,2289E-3,5C000400,-0724,0825,12223,030.3,045.5,0.251,752.2,01.17,0.508
2016-07-26 01:21:00,2296E-3,5C000400,-0724,0824,12307,030.2,045.5,0.250,752.1,01.17,0.508
2016-07-26 01:22:00,2379E-3,5C000400,-0724,0824,12172,030.3,045.5,0.251,752.2,01.17,0.508
2016-07-26 01:23:00,2378E-3,5C000400,-0724,0825,12187,030.3,045.5,0.251,752.1,01.17,0.508
2016-07-26 01:24:00,2145E-3,5C000400,-0724,0825,12154,030.2,045.5,0.251,752.1,01.17,0.508
2016-07-26 01:25:00,2240E-3,5C000400,-0724,0824,12265,030.3,045.5,0.251,752.1,01.17,0.508
2016-07-26 01:26:00,2163E-3,5C000400,-0724,0823,12106,030.3,045.5,0.250,752.1,01.17,0.508
2016-07-26 01:27:00,2211E-3,5C000400,-0724,0824,12137,030.3,045.5,0.251,752.1,01.17,0.508
2016-07-26 01:28:00,2201E-3,5C000400,-0724,0823,12323,030.3,045.5,0.251,752.1,01.17,0.508
2016-07-26 01:29:00,2386E-3,5C000400,-0724,0824,12153,030.3,045.5,0.251,752.1,01.17,0.508
2016-07-26 01:30:00,2308E-3,5C000400,-0724,0824,12234,030.3,045.5,0.251,752.0,01.17,0.508
2016-07-26 01:31:00,2226E-3,5C000400,-0724,0823,12282,030.3,045.5,0.251,752.0,01.17,0.508
2016-07-26 01:32:00,2289E-3,5C000400,-0724,0824,12200,030.3,045.5,0.251,752.0,01.17,0.508
2016-07-26 01:33:00,2219E-3,5C000400,-0724,0824,12182,030.3,045.5,0.250,752.0,01.17,0.508
2016-07-26 01:34:00,2213E-3,5C000400,-0724,0823,12134,030.3,045.5,0.251,752.1,01.17,0.508
2016-07-26 01:35:00,2272E-3,5C000400,-0724,0824,12227,030.3,045.5,0.251,752.1,01.17,0.508
2016-07-26 01:36:00,2204E-3,5C000400,-0724,0825,12260,030.3,045.5,0.251,752.1,01.17,0.508
2016-07-26 01:37:00,2450E-3,5C000400,-0724,0823,12213,030.3,045.5,0.251,752.1,01.17,0.508
2016-07-26 01:38:00,2229E-3,5C000400,-0724,0824,12310,030.3,045.5,0.250,752.2,01.17,0.508
2016-07-26 01:39:00,2193E-3,5C000400,-0724,0824,12211,030.3,045.5,0.251,752.1,01.17,0.508
2016-07-26 01:40:00,2234E-3,5C000400,-0724,0825,12185,030.3,045.5,0.251,752.2,01.17,0.508
2016-07-26 01:41:00,2171E-3,5C000400,-0724,0825,12272,030.3,045.5,0.251,752.2,01.17,0.508
2016-07-26 01:42:00,2391E-3,5C000400,-0724,0824,12280,030.3,045.5,0.251,752.3,01.17,0.508
2016-07-26 01:43:00,2171E-3,5C000400,-0724,0825,12446,030.3,045.5,0.250,752.2,01.17,0.508
2016-07-26 01:44:00,2280E-3,5C000400,-0724,0824,12311,030.3,045.5,0.251,752.2,01.17,0.508
2016-07-26 01:45:00,2207E-3,5C000400,-0724,0825,12316,030.3,045.5,0.251,752.2,01.17,0.508
2016-07-26 01:46:00,2129E-3,5C000400,-0724,0824,12265,030.3,045.5,0.251,752.2,01.17,0.508
2016-07-26 01:47:00,2145E-3,5C000400,-0724,0824,12174,030.3,045.5,0.251,752.2,01.17,0.508
2016-07-26 01:48:00,2222E-3,5C000400,-0724,0826,12186,030.3,045.5,0.250,752.2,01.17,0.508
2016-07-26 01:49:00,2223E-3,5C000400,-0724,0825,12328,030.3,045.5,0.251,752.2,01.17,0.508
2016-07-26 01:50:00,2303E-3,5C000400,-0724,0825,12367,030.3,045.5,0.251,752.1,01.17,0.508
2016-07-26 01:51:00,2111E-3,5C000400,-0724,0825,12280,030.4,045.5,0.251,752.1,01.17,0.508
2016-07-26 01:52:00,2376E-3,5C000400,-0724,0824,12317,030.3,045.5,0.251,752.1,01.17,0.508
2016-07-26 01:53:00,2150E-3,5C000400,-0724,0825,12331,030.3,045.5,0.250,752.1,01.17,0.508
2016-07-26 01:54:00,2085E-3,5C000400,-0724,0824,12270,030.3,045.5,0.251,752.1,01.17,0.508
2016-07-26 01:55:00,2235E-3,5C000400,-0724,0825,12378,030.3,045.5,0.251,752.1,01.17,0.508
2016-07-26 01:56:00,2098E-3,5C000400,-0724,0825,12111,030.3,045.5,0.250,752.0,01.17,0.508
2016-07-26 01:57:00,2166E-3,5C000400,-0724,0824,12157,030.3,045.5,0.251,752.0,01.17,0.508
2016-07-26 01:58:00,2223E-3,5C000400,-0724,0825,12225,030.3,045.5,0.250,752.0,01.17,0.508
2016-07-26 01:59:00,2210E-3,5C000400,-0724,0824,12333,030.3,045.5,0.251,752.0,01.17,0.508
2016-07-26 02:00:00,2156E-3,5C000400,-0724,0825,12211,030.3,045.5,0.251,752.0,01.17,0.508
2016-07-26 02:01:00,2199E-3,5C000400,-0724,0824,12368,030.4,045.5,0.250,752.0,01.17,0.508
2016-07-26 02:02:00,2294E-3,5C000400,-0724,0824,12070,030.3,045.5,0.251,752.1,01.17,0.508
2016-07-26 02:03:00,2342E-3,5C000400,-0724,0825,12174,030.4,045.5,0.251,752.1,01.17,0.508
2016-07-26 02:04:00,2125E-3,5C000400,-0724,0824,12328,030.3,045.5,0.251,752.1,01.17,0.508
2016-07-26 02:05:00,2188E-3,5C000400,-0724,0826,12244,030.4,045.5,0.250,752.1,01.17,0.508
2016-07-26 02:06:00,2237E-3,5C000400,-0724,0825,12259,030.3,045.5,0.251,752.1,01.17,0.508
2016-07-26 02:07:00,2405E-3,5C000400,-0724,0825,12272,030.4,045.5,0.250,752.1,01.17,0.508
2016-07-26 02:08:00,2108E-3,5C000400,-0724,0824,12302,030.3,045.6,0.251,752.1,01.17,0.508
2016-07-26 02:09:00,2260E-3,5C000400,-0724,0824,12321,030.4,045.5,0.250,752.0,01.17,0.508
2016-07-26 02:10:00,2288E-3,5C000400,-0724,0824,12153,030.4,045.5,0.250,752.1,01.17,0.508
2016-07-26 02:11:00,2247E-3,5C000400,-0724,0824,12242,030.4,045.5,0.251,752.1,01.17,0.508
2016-07-26 02:12:00,2365E-3,5C000400,-0724,0824,12143,030.4,045.5,0.250,752.1,01.17,0.508
2016-07-26 02:13:00,2163E-3,5C000400,-0724,0825,12357,030.4,045.5,0.251,752.1,01.17,0.508
2016-07-26 02:14:00,2353E-3,5C000400,-0724,0825,12273,030.4,045.5,0.251,752.1,01.17,0.508
2016-07-26 02:15:00,2143E-3,5C000400,-0724,0825,12347,030.4,045.5,0.250,752.1,01.17,0.508
2016-07-26 02:16:00,2340E-3,5C000400,-0724,0824,12284,030.4,045.5,0.251,752.1,01.17,0.508
2016-07-26 02:17:00,2164E-3,5C000400,-0724,0825,12300,030.4,045.5,0.250,752.1,01.17,0.508
2016-07-26 02:18:00,2180E-3,5C000400,-0724,0826,12167,030.4,045.5,0.250,752.1,01.17,0.508
2016-07-26 02:19:00,2134E-3,5C000400,-0724,0825,12219,030.4,045.5,0.251,752.1,01.17,0.508
2016-07-26 02:20:00,2284E-3,5C000400,-0724,0825,12238,030.4,045.5,0.250,752.1,01.17,0.508
2016-07-26 02:21:00,2104E-3,5C000400,-0724,0824,12297,030.4,045.6,0.251,752.1,01.17,0.508
2016-07-26 02:22:00,2196E-3,5C000400,-0724,0824,12374,030.4,045.5,0.250,752.1,01.17,0.508
2016-07-26 02:23:00,2163E-3,5C000400,-0724,0824,12192,030.4,045.5,0.250,752.1,01.17,0.508
2016-07-26 02:24:00,2184E-3,5C000400,-0724,0825,12055,030.4,045.5,0.251,752.0,01.17,0.508
2016-07-26 02:25:00,2206E-3,5C000400,-0724,0825,12270,030.4,045.5,0.250,752.0,01.17,0.508
2016-07-26 02:26:00,2317E-3,5C000400,-0724,0825,12231,030.4,045.5,0.251,752.0,01.17,0.508
2016-07-26 02:27:00,2307E-3,5C000400,-0724,0825,12323,030.4,045.5,0.250,752.0,01.17,0.508
2016-07-26 02:28:00,2175E-3,5C000400,-0724,0825,12356,030.4,045.5,0.250,752.0,01.17,0.508
2016-07-26 02:29:00,2219E-3,5C000400,-0724,0824,12276,030.4,045.5,0.251,752.0,01.17,0.508
2016-07-26 02:30:00,2311E-3,5C000400,-0724,0824,12443,030.4,045.5,0.251,751.9,01.17,0.508
2016-07-26 02:31:00,2114E-3,5C000400,-0724,0825,12257,030.4,045.5,0.251,751.9,01.17,0.508
2016-07-26 02:32:00,2336E-3,5C000400,-0724,0825,12304,030.4,045.5,0.250,751.9,01.17,0.508
2016-07-26 02:33:00,2189E-3,5C000400,-0724,0825,12319,030.4,045.5,0.251,752.0,01.17,0.508
2016-07-26 02:34:00,2285E-3,5C000400,-0724,0825,12236,030.4,045.5,0.250,751.9,01.17,0.508
2016-07-26 02:35:00,2345E-3,5C000400,-0724,0824,12247,030.5,045.5,0.250,751.9,01.17,0.508
2016-07-26 02:36:00,2226E-3,5C000400,-0724,0824,12184,030.4,045.5,0.250,751.9,01.17,0.508
2016-07-26 02:37:00,2247E-3,5C000400,-0724,0824,12164,030.4,045.5,0.250,751.9,01.17,0.508
2016-07-26 02:38:00,2192E-3,5C000400,-0724,0824,12161,030.5,045.5,0.251,751.9,01.17,0.508
2016-07-26 02:39:00,2290E-3,5C000400,-0724,0824,12228,030.4,045.5,0.250,752.0,01.17,0.508
2016-07-26 02:40:00,2348E-3,5C000400,-0724,0826,12256,030.4,045.5,0.250,751.9,01.17,0.508
2016-07-26 02:41:00,2330E-3,5C000400,-0724,0825,12302,030.4,045.5,0.251,751.9,01.17,0.508
2016-07-26 02:42:00,2203E-3,5C000400,-0724,0825,12099,030.5,045.5,0.250,751.9,01.17,0.508
2016-07-26 02:43:00,2247E-3,5C000400,-0724,0824,12267,030.5,045.5,0.250,751.9,01.17,0.508
2016-07-26 02:44:00,2215E-3,5C000400,-0724,0825,12314,030.5,045.5,0.250,751.9,01.17,0.508
2016-07-26 02:45:00,2389E-3,5C000400,-0724,0825,12185,030.5,045.5,0.250,751.9,01.17,0.508
2016-07-26 02:46:00,2196E-3,5C000400,-0724,0824,12253,030.5,045.5,0.251,751.8,01.17,0.508
2016-07-26 02:47:00,2213E-3,5C000400,-0724,0824,12156,030.5,045.5,0.250,751.8,01.17,0.508
2016-07-26 02:48:00,2194E-3,5C000400,-0724,0825,12211,030.5,045.5,0.250,751.8,01.17,0.508
2016-07-26 02:49:00,2216E-3,5C000400,-0724,0824,12171,030.5,045.5,0.250,751.8,01.17,0.508
2016-07-26 02:50:00,2151E-3,5C000400,-0724,0825,12183,030.5,045.5,0.250,751.8,01.17,0.508
2016-07-26 02:51:00,2170E-3,5C000400,-0724,0825,12165,030.5,045.5,0.251,751.9,01.17,0.508
2016-07-26 02:52:00,2382E-3,5C000400,-0724,0825,12050,030.5,045.5,0.250,751.9,01.17,0.508
2016-07-26 02:53:00,2273E-3,5C000400,-0724,0825,12080,030.5,045.5,0.250,751.9,01.17,0.508
2016-07-26 02:54:00,2347E-3,5C000400,-0724,0825,12275,030.5,045.5,0.250,751.9,01.17,0.508
2016-07-26 02:55:00,2130E-3,5C000400,-0724,0825,12381,030.5,045.5,0.250,752.0,01.17,0.508
2016-07-26 02:56:00,2223E-3,5C000400,-0724,0824,12176,030.5,045.5,0.250,752.0,01.17,0.508
2016-07-26 02:57:00,2142E-3,5C000400,-0724,0825,12286,030.5,045.5,0.250,751.9,01.17,0.508
2016-07-26 02:58:00,2323E-3,5C000400,-0724,0825,12296,030.5,045.5,0.250,752.0,01.17,0.508
2016-07-26 02:59:00,2181E-3,5C000400,-0724,0825,12220,030.5,045.5,0.250,751.9,01.17,0.508
2016-07-26 03:00:00,2254E-3,5C000400,-0724,0824,12218,030.5,045.5,0.250,751.9,01.17,0.508
2016-07-26 03:01:00,2170E-3,5C000400,-0724,0825,12244,030.5,045.5,0.250,751.9,01.17,0.508
2016-07-26 03:02:00,2197E-3,5C000400,-0724,0825,12331,030.5,045.5,0.250,751.9,01.17,0.508
2016-07-26 03:03:00,2155E-3,5C000400,-0724,0825,12245,030.5,045.5,0.250,751.9,01.17,0.508
2016-07-26 03:04:00,2281E-3,5C000400,-0724,0825,12184,030.5,045.5,0.250,751.9,01.17,0.508
2016-07-26 03:05:00,2256E-3,5C000400,-0724,0825,12190,030.5,045.5,0.250,751.9,01.17,0.508
2016-07-26 03:06:00,2302E-3,5C000400,-0724,0824,12239,030.5,045.6,0.250,751.8,01.17,0.508
2016-07-26 03:07:00,2251E-3,5C000400,-0724,0825,12143,030.5,045.5,0.250,751.8,01.17,0.508
2016-07-26 03:08:00,2184E-3,5C000400,-0724,0825,12063,030.5,045.5,0.250,751.8,01.17,0.508
2016-07-26 03:09:00,2296E-3,5C000400,-0724,0825,12220,030.5,045.5,0.250,751.8,01.17,0.508
2016-07-26 03:10:00,2246E-3,5C000400,-0724,0825,12133,030.5,045.5,0.250,751.8,01.17,0.508
2016-07-26 03:11:00,2260E-3,5C000400,-0724,0825,12173,030.5,045.5,0.250,751.8,01.17,0.508
2016-07-26 03:12:00,2168E-3,5C000400,-0724,0825,12407,030.5,045.5,0.250,751.8,01.17,0.508
2016-07-26 03:13:00,2209E-3,5C000400,-0724,0825,12141,030.6,045.5,0.250,751.9,01.17,0.508
2016-07-26 03:14:00,2153E-3,5C000400,-0724,0825,12239,030.6,045.5,0.250,751.8,01.17,0.508
2016-07-26 03:15:00,2315E-3,5C000400,-0724,0825,12228,030.6,045.5,0.250,751.9,01.17,0.508
2016-07-26 03:16:00,2245E-3,5C000400,-0724,0825,12010,030.6,045.5,0.250,751.9,01.17,0.508
2016-07-26 03:17:00,2364E-3,5C000400,-0724,0824,12206,030.6,045.5,0.250,751.9,01.17,0.508
2016-07-26 03:18:00,2200E-3,5C000400,-0724,0825,12269,030.6,045.5,0.250,751.9,01.17,0.508
2016-07-26 03:19:00,2184E-3,5C000400,-0724,0825,12206,030.6,045.5,0.250,751.9,01.17,0.508
2016-07-26 03:20:00,2080E-3,5C000400,-0724,0825,12081,030.6,045.5,0.250,751.8,01.17,0.508
2016-07-26 03:21:00,2135E-3,5C000400,-0724,0825,12340,030.6,045.5,0.250,751.8,01.17,0.508
2016-07-26 03:22:00,2058E-3,5C000400,-0724,0825,12132,030.6,045.5,0.250,751.8,01.17,0.508
2016-07-26 03:23:00,2226E-3,5C000400,-0724,0825,12330,030.6,045.5,0.250,751.8,01.17,0.508
2016-07-26 03:24:00,2309E-3,5C000400,-0724,0825,12226,030.6,045.5,0.250,751.8,01.17,0.508
2016-07-26 03:25:00,2269E-3,5C000400,-0724,0825,12302,030.6,045.5,0.250,751.8,01.17,0.508
2016-07-26 03:26:00,2228E-3,5C000400,-0724,0825,12153,030.6,045.5,0.250,751.8,01.17,0.508
2016-07-26 03:27:00,2244E-3,5C000400,-0724,0825,12138,030.6,045.5,0.250,751.8,01.17,0.508
2016-07-26 03:28:00,2178E-3,5C000400,-0724,0825,12127,030.6,045.5,0.250,751.8,01.17,0.508
2016-07-26 03:29:00,2333E-3,5C000400,-0724,0825,12247,030.6,045.5,0.250,751.8,01.17,0.508
2016-07-26 03:30:00,2186E-3,5C000400,-0724,0825,12412,030.6,045.5,0.251,751.8,01.17,0.508
2016-07-26 03:31:00,2297E-3,5C000400,-0724,0826,12378,030.6,045.5,0.250,751.8,01.17,0.508
2016-07-26 03:32:00,2315E-3,5C000400,-0724,0825,12167,030.6,045.5,0.250,751.8,01.17,0.508
2016-07-26 03:33:00,2082E-3,5C000400,-0724,0825,12130,030.6,045.5,0.250,751.9,01.17,0.508
2016-07-26 03:34:00,2302E-3,5C000400,-0724,0824,12409,030.6,045.5,0.250,751.9,01.17,0.508
2016-07-26 03:35:00,2302E-3,5C000400,-0724,0825,12103,030.6,045.5,0.250,752.0,01.17,0.508
2016-07-26 03:36:00,2332E-3,5C000400,-0724,0825,12313,030.6,045.5,0.250,751.9,01.17,0.508
2016-07-26 03:37:00,2268E-3,5C000400,-0724,0825,12254,030.6,045.5,0.250,751.8,01.17,0.508
2016-07-26 03:38:00,2187E-3,5C000400,-0724,0825,12309,030.6,045.5,0.250,751.9,01.17,0.508
2016-07-26 03:39:00,2072E-3,5C000400,-0724,0825,12372,030.6,045.5,0.250,751.9,01.17,0.508
2016-07-26 03:40:00,2070E-3,5C000400,-0724,0825,12175,030.6,045.5,0.250,751.9,01.17,0.508
2016-07-26 03:41:00,2329E-3,5C000400,-0724,0825,12263,030.6,045.5,0.250,751.8,01.17,0.508
2016-07-26 03:42:00,2389E-3,5C000400,-0724,0825,12278,030.7,045.5,0.250,751.8,01.17,0.508
2016-07-26 03:43:00,2247E-3,5C000400,-0724,0825,12264,030.7,045.5,0.250,751.7,01.17,0.508
2016-07-26 03:44:00,2228E-3,5C000400,-0724,0825,12104,030.7,045.5,0.250,751.8,01.17,0.508
2016-07-26 03:45:00,2337E-3,5C000400,-0724,0826,12232,030.6,045.5,0.250,751.8,01.17,0.508
2016-07-26 03:46:00,2176E-3,5C000400,-0724,0825,12107,030.7,045.5,0.250,751.8,01.17,0.508
2016-07-26 03:47:00,2193E-3,5C000400,-0724,0825,12259,030.7,045.6,0.250,751.8,01.17,0.508
2016-07-26 03:48:00,2262E-3,5C000400,-0724,0825,12230,030.7,045.5,0.250,751.8,01.17,0.508
2016-07-26 03:49:00,2231E-3,5C000400,-0724,0824,12168,030.7,045.5,0.250,751.7,01.17,0.508
2016-07-26 03:50:00,2331E-3,5C000400,-0724,0825,12286,030.7,045.5,0.250,751.8,01.17,0.508
2016-07-26 03:51:00,2238E-3,5C000400,-0724,0825,12315,030.7,045.5,0.250,751.7,01.17,0.508
2016-07-26 03:52:00,2295E-3,5C000400,-0724,0825,12314,030.7,045.5,0.250,751.7,01.17,0.508
2016-07-26 03:53:00,2383E-3,5C000400,-0724,0825,12183,030.7,045.6,0.250,751.7,01.17,0.508
2016-07-26 03:54:00,2348E-3,5C000400,-0724,0825,12397,030.7,045.6,0.250,751.7,01.17,0.508
2016-07-26 03:55:00,2320E-3,5C000400,-0724,0825,12207,030.7,045.6,0.250,751.8,01.17,0.508
2016-07-26 03:56:00,2327E-3,5C000400,-0724,0824,12140,030.7,045.6,0.250,751.8,01.17,0.508
2016-07-26 03:57:00,2141E-3,5C000400,-0724,0824,12269,030.7,045.5,0.250,751.8,01.17,0.508
2016-07-26 03:58:00,2280E-3,5C000400,-0724,0824,12178,030.7,045.5,0.250,751.7,01.17,0.508
2016-07-26 03:59:00,2247E-3,5C000400,-0724,0825,12234,030.7,045.5,0.250,751.7,01.17,0.508
2016-07-26 04:00:00,2146E-3,5C000400,-0724,0825,12194,030.7,045.5,0.250,751.8,01.17,0.508
2016-07-26 04:01:00,2167E-3,5C000400,-0724,0825,12179,030.7,045.5,0.250,751.8,01.17,0.508
2016-07-26 04:02:00,2186E-3,5C000400,-0724,0825,12314,030.7,045.5,0.250,751.8,01.17,0.508
2016-07-26 04:03:00,2305E-3,5C000400,-0724,0824,12152,030.7,045.5,0.250,751.9,01.17,0.508
2016-07-26 04:04:00,2204E-3,5C000400,-0724,0826,12268,030.7,045.5,0.250,751.8,01.17,0.508
2016-07-26 04:05:00,2274E-3,5C000400,-0724,0825,12231,030.8,045.5,0.250,751.8,01.17,0.508
2016-07-26 04:06:00,2202E-3,5C000400,-0724,0824,12233,030.7,045.5,0.250,751.9,01.17,0.508
2016-07-26 04:07:00,2244E-3,5C000400,-0724,0825,12223,030.7,045.5,0.249,751.9,01.17,0.508
2016-07-26 04:08:00,2239E-3,5C000400,-0724,0825,12238,030.8,045.5,0.250,751.8,01.17,0.508
2016-07-26 04:09:00,2283E-3,5C000400,-0724,0825,12309,030.7,045.5,0.250,751.8,01.17,0.508
2016-07-26 04:10:00,2232E-3,5C000400,-0724,0825,12220,030.7,045.5,0.250,751.7,01.17,0.508
2016-07-26 04:11:00,2278E-3,5C000400,-0724,0824,12248,030.8,045.5,0.250,751.7,01.17,0.508
2016-07-26 04:12:00,2226E-3,5C000400,-0724,0824,12238,030.8,045.5,0.250,751.7,01.17,0.508
2016-07-26 04:13:00,2127E-3,5C000400,-0724,0824,12248,030.8,045.5,0.250,751.7,01.17,0.508
2016-07-26 04:14:00,2262E-3,5C000400,-0724,0825,12148,030.8,045.5,0.250,751.7,01.17,0.508
2016-07-26 04:15:00,2151E-3,5C000400,-0724,0825,12112,030.8,045.5,0.249,751.7,01.17,0.508
2016-07-26 04:16:00,2332E-3,5C000400,-0724,0824,12282,030.8,045.6,0.250,751.7,01.17,0.508
2016-07-26 04:17:00,2269E-3,5C000400,-0724,0824,12107,030.8,045.5,0.250,751.8,01.17,0.508
2016-07-26 04:18:00,2263E-3,5C000400,-0724,0825,12159,030.8,045.5,0.250,751.8,01.17,0.508
2016-07-26 04:19:00,2193E-3,5C000400,-0724,0825,12142,030.8,045.5,0.250,751.8,01.17,0.508
2016-07-26 04:20:00,2252E-3,5C000400,-0724,0825,12239,030.8,045.5,0.250,751.7,01.17,0.508